TimeEDT,TemperatureF,Dew PointF,Humidity,Sea Level PressureIn,VisibilityMPH,Wind Direction,Wind SpeedMPH,Gust SpeedMPH,PrecipitationIn,Events,Conditions,WindDirDegrees,DateUTC
12:15 AM,35.6,35.6,100,29.73,10.0,WSW,5.8,-,N/A,,Unknown,250,2012-11-02 04:15:00
12:35 AM,35.6,35.6,100,29.73,10.0,WSW,5.8,-,N/A,,Unknown,250,2012-11-02 04:35:00
12:55 AM,35.6,35.6,100,29.73,10.0,West,4.6,-,N/A,,Unknown,260,2012-11-02 04:55:00
1:15 AM,35.6,35.6,100,29.73,10.0,West,5.8,-,N/A,,Unknown,260,2012-11-02 05:15:00
1:35 AM,35.6,35.6,100,29.73,10.0,WSW,5.8,-,N/A,,Unknown,250,2012-11-02 05:35:00
1:55 AM,35.6,35.6,100,29.73,10.0,WSW,4.6,-,N/A,,Unknown,240,2012-11-02 05:55:00
2:15 AM,35.6,35.6,100,29.72,10.0,WSW,3.5,-,N/A,,Unknown,240,2012-11-02 06:15:00
2:35 AM,35.6,35.6,100,29.72,10.0,WSW,3.5,-,N/A,,Unknown,240,2012-11-02 06:35:00
2:55 AM,35.6,35.6,100,29.72,10.0,WSW,3.5,-,N/A,,Unknown,240,2012-11-02 06:55:00
3:15 AM,35.6,35.6,100,29.72,10.0,WSW,3.5,-,N/A,,Unknown,240,2012-11-02 07:15:00
3:35 AM,35.6,35.6,100,29.71,10.0,Calm,Calm,-,N/A,,Unknown,0,2012-11-02 07:35:00
3:55 AM,35.6,35.6,100,29.71,10.0,Calm,Calm,-,N/A,,Unknown,0,2012-11-02 07:55:00
4:15 AM,35.6,35.6,100,29.71,10.0,WSW,4.6,-,N/A,,Unknown,240,2012-11-02 08:15:00
4:35 AM,35.6,35.6,100,29.71,10.0,WSW,3.5,-,N/A,,Unknown,250,2012-11-02 08:35:00
4:55 AM,35.6,35.6,100,29.71,10.0,West,3.5,-,N/A,,Unknown,260,2012-11-02 08:55:00
5:15 AM,35.6,35.6,100,29.71,10.0,West,5.8,-,N/A,,Unknown,260,2012-11-02 09:15:00
5:35 AM,35.6,35.6,100,29.71,10.0,West,6.9,-,N/A,,Unknown,260,2012-11-02 09:35:00
5:55 AM,35.6,35.6,100,29.71,10.0,West,4.6,-,N/A,,Unknown,260,2012-11-02 09:55:00
6:15 AM,35.6,35.6,100,29.72,5.0,WNW,5.8,-,0.01,,Unknown,290,2012-11-02 10:15:00
6:35 AM,35.6,35.6,100,29.73,7.0,WNW,6.9,-,0.02,,Unknown,290,2012-11-02 10:35:00
6:55 AM,35.6,35.6,100,29.73,7.0,WNW,11.5,-,0.03,,Unknown,300,2012-11-02 10:55:00
7:15 AM,35.6,35.6,100,29.73,10.0,WNW,4.6,-,0.01,,Unknown,300,2012-11-02 11:15:00
7:35 AM,35.6,35.6,100,29.74,10.0,West,5.8,-,0.01,,Unknown,280,2012-11-02 11:35:00
7:55 AM,35.6,35.6,100,29.74,10.0,West,5.8,-,0.01,,Unknown,270,2012-11-02 11:55:00
8:15 AM,35.6,35.6,100,29.75,7.0,West,6.9,-,N/A,,Unknown,260,2012-11-02 12:15:00
8:35 AM,35.6,35.6,100,29.75,7.0,WSW,9.2,-,N/A,,Unknown,250,2012-11-02 12:35:00
8:55 AM,35.6,35.6,100,29.76,7.0,West,8.1,-,N/A,,Unknown,260,2012-11-02 12:55:00
9:15 AM,35.6,35.6,100,29.77,7.0,West,8.1,-,N/A,,Unknown,260,2012-11-02 13:15:00
9:35 AM,35.6,35.6,100,29.77,10.0,West,5.8,-,N/A,,Unknown,270,2012-11-02 13:35:00
9:55 AM,37.4,37.4,100,29.78,10.0,West,12.7,-,N/A,,Unknown,270,2012-11-02 13:55:00
10:15 AM,37.4,37.4,100,29.78,10.0,West,10.4,18.4,N/A,,Unknown,270,2012-11-02 14:15:00
10:35 AM,37.4,37.4,100,29.78,10.0,West,8.1,-,N/A,,Unknown,270,2012-11-02 14:35:00
10:55 AM,37.4,37.4,100,29.78,10.0,West,9.2,-,N/A,,Unknown,270,2012-11-02 14:55:00
11:15 AM,37.4,37.4,100,29.79,10.0,West,11.5,-,N/A,,Unknown,270,2012-11-02 15:15:00
11:35 AM,39.2,37.4,93,29.80,10.0,WNW,10.4,17.3,N/A,,Unknown,290,2012-11-02 15:35:00
11:55 AM,39.2,35.6,87,29.80,10.0,West,12.7,19.6,N/A,,Unknown,280,2012-11-02 15:55:00
12:15 PM,39.2,37.4,93,29.80,10.0,West,10.4,17.3,N/A,,Unknown,280,2012-11-02 16:15:00
12:35 PM,39.2,37.4,93,29.79,10.0,West,10.4,17.3,N/A,,Unknown,280,2012-11-02 16:35:00
12:55 PM,39.2,35.6,87,29.80,10.0,WNW,8.1,18.4,N/A,,Unknown,290,2012-11-02 16:55:00
1:15 PM,39.2,35.6,87,29.80,10.0,WNW,15.0,20.7,N/A,,Unknown,290,2012-11-02 17:15:00
1:35 PM,39.2,35.6,87,29.80,10.0,NW,12.7,17.3,N/A,,Unknown,310,2012-11-02 17:35:00
1:55 PM,39.2,37.4,93,29.80,10.0,WNW,10.4,16.1,N/A,,Unknown,300,2012-11-02 17:55:00
2:15 PM,37.4,37.4,100,29.81,7.0,NW,10.4,21.9,N/A,,Unknown,310,2012-11-02 18:15:00
2:35 PM,39.2,37.4,93,29.81,10.0,WNW,11.5,19.6,N/A,,Unknown,290,2012-11-02 18:35:00
2:55 PM,37.4,35.6,93,29.82,10.0,WNW,11.5,18.4,N/A,,Unknown,290,2012-11-02 18:55:00
3:15 PM,37.4,35.6,93,29.83,10.0,WNW,11.5,18.4,N/A,,Unknown,300,2012-11-02 19:15:00
3:35 PM,37.4,35.6,93,29.83,10.0,WNW,6.9,20.7,N/A,,Unknown,290,2012-11-02 19:35:00
3:55 PM,39.2,35.6,87,29.84,10.0,WNW,10.4,17.3,N/A,,Unknown,290,2012-11-02 19:55:00
4:15 PM,39.2,35.6,87,29.84,10.0,West,15.0,24.2,N/A,,Unknown,280,2012-11-02 20:15:00
4:35 PM,39.2,37.4,93,29.85,10.0,West,15.0,-,N/A,,Unknown,280,2012-11-02 20:35:00
4:55 PM,39.2,35.6,87,29.85,10.0,WNW,10.4,17.3,N/A,,Unknown,290,2012-11-02 20:55:00
5:15 PM,39.2,32.0,75,29.86,10.0,WNW,13.8,24.2,N/A,,Unknown,300,2012-11-02 21:15:00
5:35 PM,39.2,33.8,81,29.87,10.0,WNW,10.4,21.9,N/A,,Unknown,290,2012-11-02 21:35:00
5:55 PM,37.4,33.8,87,29.88,10.0,WNW,11.5,17.3,N/A,,Unknown,300,2012-11-02 21:55:00
6:15 PM,37.4,33.8,87,29.89,10.0,WNW,8.1,-,N/A,,Unknown,290,2012-11-02 22:15:00
6:35 PM,37.4,33.8,87,29.90,10.0,WNW,6.9,16.1,N/A,,Unknown,290,2012-11-02 22:35:00
6:55 PM,37.4,32.0,81,29.91,10.0,WNW,9.2,17.3,N/A,,Unknown,290,2012-11-02 22:55:00
7:15 PM,37.4,35.6,93,29.92,10.0,WNW,11.5,16.1,N/A,,Unknown,290,2012-11-02 23:15:00
7:35 PM,37.4,35.6,93,29.92,10.0,WNW,8.1,-,N/A,,Unknown,290,2012-11-02 23:35:00
7:55 PM,37.4,35.6,93,29.92,10.0,WNW,10.4,17.3,N/A,,Unknown,290,2012-11-02 23:55:00
8:15 PM,37.4,35.6,93,29.92,10.0,West,9.2,19.6,N/A,,Unknown,280,2012-11-03 00:15:00
8:35 PM,37.4,35.6,93,29.93,10.0,West,10.4,16.1,N/A,,Unknown,280,2012-11-03 00:35:00
8:55 PM,35.6,35.6,100,29.93,10.0,WNW,9.2,-,N/A,,Unknown,290,2012-11-03 00:55:00
9:15 PM,35.6,33.8,93,29.93,10.0,WNW,11.5,16.1,N/A,,Unknown,290,2012-11-03 01:15:00
9:35 PM,35.6,33.8,93,29.94,10.0,WNW,10.4,18.4,N/A,,Unknown,290,2012-11-03 01:35:00
9:55 PM,35.6,33.8,93,29.94,10.0,WNW,9.2,16.1,N/A,,Unknown,290,2012-11-03 01:55:00
10:15 PM,35.6,33.8,93,29.95,10.0,WNW,11.5,16.1,N/A,,Unknown,290,2012-11-03 02:15:00
10:35 PM,35.6,33.8,93,29.95,10.0,WNW,9.2,16.1,N/A,,Unknown,290,2012-11-03 02:35:00
10:55 PM,35.6,33.8,93,29.95,10.0,WNW,12.7,19.6,N/A,,Unknown,290,2012-11-03 02:55:00
11:15 PM,35.6,33.8,93,29.95,10.0,WNW,8.1,19.6,N/A,,Unknown,300,2012-11-03 03:15:00
11:35 PM,35.6,35.6,100,29.95,10.0,NW,8.1,-,N/A,,Unknown,310,2012-11-03 03:35:00
11:55 PM,35.6,33.8,93,29.95,10.0,WNW,6.9,-,N/A,,Unknown,300,2012-11-03 03:55:00